Location: Mary A Oil Field
(38.5606°N, 98.9545°W)
Time: 22:48:04
(UTC+00:00)

Cosmos 2082 - Pass Details

Date: 20 January 2020
Orbit: 833 x 856 km, 71.0° (Epoch: 17 February)

Event Time Altitude Azimuth Distance (km) Brightness Sun altitude
Rises 01:25:28 0° 190° (S) 3,362 7.1 -19.9°
Reaches altitude 10° 01:27:55 10° 187° (S) 2,433 6.3 -20.3°
Maximum altitude 01:33:24 61° 108° (ESE) 945 3.6 -21.4°
Enters shadow 01:35:10 41° 49° (NE) 1,194 4.1 -21.7°
